CZ-6A DEB, 55187

Orbit data source: Space-Track

CZ-6A DEB, 55187 is space debris in SSO originally from a launch on Fri, 11 Nov 2022 UTC launched from the Taiyaun Space Center, China (TSC). Debris objects in space refer to the collection of defunct objects orbiting the Earth. Examples of debris include non-operational satellites, rocket bodies, and fragments generated from explosions, collisions, or faulty payload assembly.

Loading next visibility...
Identifier
55187, 2022-151VC
Orbit
SSO
Country
Flag of CNCN / PRC
Related business
Manufacturer
SAST
Mission
Spacecraft
Bus & Motor
Unknown
Mass
Unknown
Launch date (UTC)
2022-11-11 (4 years ago)
Launch vehicle
Unknown
Launch site
Taiyaun Space Center, China (TSC)
Object type
Payload
Rocket body
Debris
Shape & HBR
Unknown shape, 0.1 m
Radar Cross Section
Medium (>0.1 m² and <1 m²)

Expand to show TLE details & history
Last TLE update: 2 days ago

TLE from 2 days ago
0 CZ-6A DEB
1 55187U 22151VC  26171.02975222  .00004280  00000-0  15308-2 0  9996
2 55187  98.7975 193.6256 0060215 316.8456  42.8016 14.33575365184020
Epoch: 2026-06-20T00:42Z
TLE epoch observation values (Epoch: 2026-06-20T00:42:50.591Z)
Latitude
-0.00009°
Longitude
-85.33542°
Altitude
751.225 km
Speed
7.495 km/s
True Right ascension
12h 54m 30s
True Declination
0° 00' 00"
Sunlit
Object was in daylight at epoch
Visualization orbit readout
Latitude
Unknown
Longitude
Unknown
Altitude
Unknown
Speed
Unknown
Apparent Right ascension
Unknown
Apparent Declination
Unknown
Sunlit
N/A
Visualization observer readout
Local Sidereal Time
22:00:16
Azimuth
Unknown
Elevation
Unknown
Doppler factor
Unknown
Orbital elements
Apogee altitude
820.034 km
Perigee altitude
733.865 km
Semi-major axis
7,155.086 km
Eccentricity
0.00602
Inclination
98.7975°
RAAN
193.6256°
Arg. of periapsis
316.8456°
True anomaly
43.27304°
Mean anomaly
42.8016°
Eccentric anomaly
43.03706°
Mean motion
3.58609 °/min
Orbital period
100.39 mins
BSTAR
0.0015308
Loading maneuver chart data...
Computing Atmospheric mass density...
Loading historical data...
Loading historical data...
Loading historical data...
Loading historical data...
Loading historical data...
Loading historical data...
Loading historical data...

Documentation

Showing up to 5 results
|